Time,TemperatureF,DewpointF,PressureIn,WindDirection,WindDirectionDegrees,WindSpeedMPH,WindSpeedGustMPH,Humidity,HourlyPrecipIn,Conditions,Clouds,dailyrainin,SoftwareType,DateUTC
2013-05-27 00:01:00,60.8,45.9,29.03,South,180,0.0,1.3,58,0.00,,,0.00,WSDL version 420,2013-05-27 04:01:00,
2013-05-27 00:03:00,60.8,45.7,29.03,South,180,0.0,1.3,57,0.00,,,0.00,WSDL version 420,2013-05-27 04:03:00,
2013-05-27 00:07:00,60.8,45.2,29.03,ESE,113,0.0,1.3,56,0.00,,,0.00,WSDL version 420,2013-05-27 04:07:00,
2013-05-27 00:09:00,60.9,44.9,29.03,NNE,23,0.0,1.6,55,0.00,,,0.00,WSDL version 420,2013-05-27 04:09:00,
2013-05-27 00:11:00,61.0,44.8,29.03,SE,129,0.7,1.6,55,0.00,,,0.00,WSDL version 420,2013-05-27 04:11:00,
2013-05-27 00:17:00,61.1,45.3,29.03,North,-999,-999.0,-999.0,56,0.00,,,0.00,WSDL version 420,2013-05-27 04:17:00,
2013-05-27 00:21:00,60.9,45.0,29.03,South,180,1.6,1.6,56,0.00,,,0.00,WSDL version 420,2013-05-27 04:21:00,
2013-05-27 00:23:00,60.7,44.8,29.03,North,-999,-999.0,-999.0,56,0.00,,,0.00,WSDL version 420,2013-05-27 04:23:00,
2013-05-27 00:25:00,60.6,45.1,29.03,North,360,0.0,1.6,58,0.00,,,0.00,WSDL version 420,2013-05-27 04:25:00,
2013-05-27 00:27:00,60.5,45.4,29.03,North,360,0.0,1.6,58,0.00,,,0.00,WSDL version 420,2013-05-27 04:27:00,
2013-05-27 00:29:00,60.4,45.5,29.03,North,360,0.0,0.0,58,0.00,,,0.00,WSDL version 420,2013-05-27 04:29:00,
2013-05-27 00:31:00,60.3,45.5,29.03,North,-999,-999.0,-999.0,58,0.00,,,0.00,WSDL version 420,2013-05-27 04:31:00,
2013-05-27 00:37:00,60.2,45.1,29.03,South,180,0.0,0.0,57,0.00,,,0.00,WSDL version 420,2013-05-27 04:37:00,
2013-05-27 00:39:00,60.1,44.8,29.03,South,180,0.0,0.0,57,0.00,,,0.00,WSDL version 420,2013-05-27 04:39:00,
2013-05-27 00:41:00,60.1,44.9,29.03,South,180,0.0,0.0,57,0.00,,,0.00,WSDL version 420,2013-05-27 04:41:00,
2013-05-27 00:43:00,60.1,44.9,29.03,South,180,0.0,0.0,57,0.00,,,0.00,WSDL version 420,2013-05-27 04:43:00,
2013-05-27 00:47:00,60.1,45.2,29.03,South,180,0.0,0.0,58,0.00,,,0.00,WSDL version 420,2013-05-27 04:47:00,
2013-05-27 00:49:00,60.1,45.2,29.03,South,180,0.0,0.0,58,0.00,,,0.00,WSDL version 420,2013-05-27 04:49:00,
2013-05-27 00:53:00,59.8,45.0,29.03,West,270,0.0,0.0,58,0.00,,,0.00,WSDL version 420,2013-05-27 04:53:00,
2013-05-27 00:55:00,59.8,45.0,29.03,West,270,0.0,0.0,58,0.00,,,0.00,WSDL version 420,2013-05-27 04:55:00,
2013-05-27 00:57:00,59.7,44.9,29.03,West,270,0.0,0.0,58,0.00,,,0.00,WSDL version 420,2013-05-27 04:57:00,
2013-05-27 01:01:00,59.7,44.9,29.03,South,180,0.0,0.0,58,0.00,,,0.00,WSDL version 420,2013-05-27 05:01:00,
2013-05-27 01:05:00,59.6,45.2,29.03,South,180,0.0,0.0,59,0.00,,,0.00,WSDL version 420,2013-05-27 05:05:00,
2013-05-27 01:07:00,59.5,45.2,29.03,South,180,0.0,0.0,59,0.00,,,0.00,WSDL version 420,2013-05-27 05:07:00,
2013-05-27 01:11:00,59.5,45.1,29.03,South,180,0.0,0.0,59,0.00,,,0.00,WSDL version 420,2013-05-27 05:11:00,
2013-05-27 01:13:00,59.4,45.1,29.03,South,180,0.0,0.0,59,0.00,,,0.00,WSDL version 420,2013-05-27 05:13:00,
2013-05-27 01:15:00,59.4,45.0,29.03,South,180,0.0,0.0,59,0.00,,,0.00,WSDL version 420,2013-05-27 05:15:00,
2013-05-27 01:17:00,59.3,45.0,29.03,South,180,0.0,0.0,59,0.00,,,0.00,WSDL version 420,2013-05-27 05:17:00,
2013-05-27 01:21:00,59.2,44.9,29.03,South,180,0.0,0.0,59,0.00,,,0.00,WSDL version 420,2013-05-27 05:21:00,
2013-05-27 01:23:00,59.2,45.0,29.03,South,180,0.0,0.0,60,0.00,,,0.00,WSDL version 420,2013-05-27 05:23:00,
2013-05-27 01:25:00,59.1,45.1,29.03,South,180,0.0,0.0,60,0.00,,,0.00,WSDL version 420,2013-05-27 05:25:00,
2013-05-27 01:27:00,59.1,45.2,29.03,South,180,0.0,0.0,60,0.00,,,0.00,WSDL version 420,2013-05-27 05:27:00,
2013-05-27 01:29:00,59.0,45.2,29.03,South,180,0.0,0.0,60,0.00,,,0.00,WSDL version 420,2013-05-27 05:29:00,
2013-05-27 01:33:00,58.9,45.0,29.03,South,180,0.0,0.0,60,0.00,,,0.00,WSDL version 420,2013-05-27 05:33:00,
2013-05-27 01:35:00,58.8,45.1,29.03,South,180,0.0,0.0,61,0.00,,,0.00,WSDL version 420,2013-05-27 05:35:00,
2013-05-27 01:39:00,58.8,45.4,29.03,South,180,0.0,0.0,61,0.00,,,0.00,WSDL version 420,2013-05-27 05:39:00,
2013-05-27 01:41:00,58.8,45.4,29.03,South,180,0.0,0.0,61,0.00,,,0.00,WSDL version 420,2013-05-27 05:41:00,
2013-05-27 01:45:00,58.8,45.4,29.03,South,180,0.0,0.0,61,0.00,,,0.00,WSDL version 420,2013-05-27 05:45:00,
2013-05-27 01:47:00,58.7,45.3,29.03,South,180,0.0,0.0,61,0.00,,,0.00,WSDL version 420,2013-05-27 05:47:00,
2013-05-27 01:51:00,58.6,45.2,29.03,South,169,0.0,0.0,61,0.00,,,0.00,WSDL version 420,2013-05-27 05:51:00,
2013-05-27 01:53:00,58.6,45.2,29.03,SSE,158,0.0,0.0,61,0.00,,,0.00,WSDL version 420,2013-05-27 05:53:00,
2013-05-27 01:57:00,58.6,45.2,29.03,South,169,0.0,0.0,61,0.00,,,0.00,WSDL version 420,2013-05-27 05:57:00,
2013-05-27 02:01:00,58.5,45.4,29.03,South,173,0.0,0.0,62,0.00,,,0.00,WSDL version 420,2013-05-27 06:01:00,
2013-05-27 02:03:00,58.5,45.5,29.03,South,180,0.0,0.0,62,0.00,,,0.00,WSDL version 420,2013-05-27 06:03:00,
2013-05-27 02:07:00,58.5,45.5,29.03,North,0,0.0,0.0,62,0.00,,,0.00,WSDL version 420,2013-05-27 06:07:00,
2013-05-27 02:09:00,58.5,45.5,29.03,South,180,0.0,0.0,62,0.00,,,0.00,WSDL version 420,2013-05-27 06:09:00,
2013-05-27 02:11:00,58.5,45.5,29.03,South,180,0.0,0.0,62,0.00,,,0.00,WSDL version 420,2013-05-27 06:11:00,
2013-05-27 02:13:00,58.5,45.5,29.03,South,180,0.0,0.0,62,0.00,,,0.00,WSDL version 420,2013-05-27 06:13:00,
2013-05-27 02:17:00,58.4,45.4,29.03,South,180,0.0,0.0,62,0.00,,,0.00,WSDL version 420,2013-05-27 06:17:00,
2013-05-27 02:19:00,58.3,45.4,29.03,SSE,163,0.0,0.0,62,0.00,,,0.00,WSDL version 420,2013-05-27 06:19:00,
2013-05-27 02:23:00,58.3,45.3,29.03,South,180,0.0,0.0,62,0.00,,,0.00,WSDL version 420,2013-05-27 06:23:00,
2013-05-27 02:25:00,58.3,45.3,29.03,SSE,165,0.0,0.0,62,0.00,,,0.00,WSDL version 420,2013-05-27 06:25:00,
2013-05-27 02:29:00,58.1,45.2,29.03,South,171,0.0,0.0,62,0.00,,,0.00,WSDL version 420,2013-05-27 06:29:00,
2013-05-27 02:31:00,58.1,45.2,29.03,South,180,0.0,0.0,62,0.00,,,0.00,WSDL version 420,2013-05-27 06:31:00,
2013-05-27 02:37:00,58.1,45.2,29.03,South,180,0.0,0.0,62,0.00,,,0.00,WSDL version 420,2013-05-27 06:37:00,
2013-05-27 02:39:00,58.1,45.3,29.03,SW,214,0.0,0.0,63,0.00,,,0.00,WSDL version 420,2013-05-27 06:39:00,
2013-05-27 02:43:00,58.0,45.4,29.00,South,180,0.0,0.0,63,0.00,,,0.00,WSDL version 420,2013-05-27 06:43:00,
2013-05-27 02:45:00,57.9,45.4,29.00,SSE,158,0.0,0.0,63,0.00,,,0.00,WSDL version 420,2013-05-27 06:45:00,
2013-05-27 02:51:00,57.8,45.3,29.00,South,169,0.0,0.0,63,0.00,,,0.00,WSDL version 420,2013-05-27 06:51:00,
2013-05-27 02:53:00,57.7,45.2,29.00,South,169,1.6,2.5,63,0.00,,,0.00,WSDL version 420,2013-05-27 06:53:00,
2013-05-27 02:55:00,57.7,45.2,29.00,South,180,1.9,2.5,63,0.00,,,0.00,WSDL version 420,2013-05-27 06:55:00,
2013-05-27 02:57:00,57.7,45.2,29.03,South,180,2.2,2.5,63,0.00,,,0.00,WSDL version 420,2013-05-27 06:57:00,
2013-05-27 02:59:00,57.7,45.3,29.03,South,180,1.6,2.5,64,0.00,,,0.00,WSDL version 420,2013-05-27 06:59:00,
2013-05-27 03:01:00,57.7,45.4,29.03,South,180,1.6,2.5,64,0.00,,,0.00,WSDL version 420,2013-05-27 07:01:00,
2013-05-27 03:05:00,57.7,45.7,29.03,South,180,1.3,2.5,64,0.00,,,0.00,WSDL version 420,2013-05-27 07:05:00,
2013-05-27 03:07:00,57.7,45.7,29.03,South,180,2.2,2.5,64,0.00,,,0.00,WSDL version 420,2013-05-27 07:07:00,
2013-05-27 03:11:00,57.7,45.7,29.03,SSW,203,1.3,2.7,64,0.00,,,0.00,WSDL version 420,2013-05-27 07:11:00,
2013-05-27 03:13:00,57.7,45.7,29.00,South,186,2.1,3.1,64,0.00,,,0.00,WSDL version 420,2013-05-27 07:13:00,
2013-05-27 03:15:00,57.7,45.6,29.00,South,180,2.3,3.1,64,0.00,,,0.00,WSDL version 420,2013-05-27 07:15:00,
2013-05-27 03:17:00,57.6,45.5,29.00,South,180,2.6,3.1,64,0.00,,,0.00,WSDL version 420,2013-05-27 07:17:00,
2013-05-27 03:19:00,57.6,45.5,29.00,SSE,158,2.7,3.1,64,0.00,,,0.00,WSDL version 420,2013-05-27 07:19:00,
2013-05-27 03:21:00,57.6,45.5,29.00,South,180,0.7,3.1,64,0.00,,,0.00,WSDL version 420,2013-05-27 07:21:00,
2013-05-27 03:25:00,57.6,45.5,29.00,SSE,158,0.0,2.9,64,0.00,,,0.00,WSDL version 420,2013-05-27 07:25:00,
2013-05-27 03:27:00,57.6,45.5,29.00,South,180,1.6,3.1,64,0.00,,,0.00,WSDL version 420,2013-05-27 07:27:00,
2013-05-27 03:33:00,57.6,45.3,29.00,SSW,203,0.0,3.1,63,0.00,,,0.00,WSDL version 420,2013-05-27 07:33:00,
2013-05-27 03:37:00,57.7,45.2,29.00,South,169,1.1,2.5,63,0.00,,,0.00,WSDL version 420,2013-05-27 07:37:00,
2013-05-27 03:41:00,57.8,45.3,29.00,South,180,1.1,2.7,63,0.00,,,0.00,WSDL version 420,2013-05-27 07:41:00,
2013-05-27 03:43:00,57.7,45.2,29.00,South,180,0.4,2.7,63,0.00,,,0.00,WSDL version 420,2013-05-27 07:43:00,
2013-05-27 03:47:00,57.6,45.3,29.00,West,270,0.0,2.7,64,0.00,,,0.00,WSDL version 420,2013-05-27 07:47:00,
2013-05-27 03:51:00,57.4,45.3,29.00,ENE,68,0.0,2.0,64,0.00,,,0.00,WSDL version 420,2013-05-27 07:51:00,
2013-05-27 03:55:00,57.4,45.3,29.00,ENE,68,0.0,0.0,64,0.00,,,0.00,WSDL version 420,2013-05-27 07:55:00,
2013-05-27 03:59:00,57.5,45.4,29.00,South,180,0.0,0.0,64,0.00,,,0.00,WSDL version 420,2013-05-27 07:59:00,
2013-05-27 04:01:00,57.6,45.6,29.00,South,180,0.0,0.0,65,0.00,,,0.00,WSDL version 420,2013-05-27 08:01:00,
2013-05-27 04:03:00,57.6,45.7,29.00,South,180,0.0,0.0,64,0.00,,,0.00,WSDL version 420,2013-05-27 08:03:00,
2013-05-27 04:05:00,57.6,45.6,29.00,South,180,0.0,0.0,64,0.00,,,0.00,WSDL version 420,2013-05-27 08:05:00,
2013-05-27 04:07:00,57.6,45.6,29.00,South,180,0.0,2.0,65,0.00,,,0.00,WSDL version 420,2013-05-27 08:07:00,
2013-05-27 04:11:00,57.6,45.7,29.00,South,180,1.9,2.0,64,0.00,,,0.00,WSDL version 420,2013-05-27 08:11:00,
2013-05-27 04:13:00,57.6,45.6,29.03,South,180,1.2,2.0,64,0.00,,,0.00,WSDL version 420,2013-05-27 08:13:00,
2013-05-27 04:17:00,57.6,45.5,29.03,South,180,0.0,2.0,64,0.00,,,0.00,WSDL version 420,2013-05-27 08:17:00,
2013-05-27 04:19:00,57.6,45.5,29.03,South,180,0.0,2.0,64,0.00,,,0.00,WSDL version 420,2013-05-27 08:19:00,
2013-05-27 04:21:00,57.6,45.5,29.03,South,180,0.0,1.6,64,0.00,,,0.00,WSDL version 420,2013-05-27 08:21:00,
2013-05-27 04:25:00,57.6,45.5,29.03,South,169,0.0,2.5,64,0.00,,,0.00,WSDL version 420,2013-05-27 08:25:00,
2013-05-27 04:27:00,57.6,45.5,29.00,South,180,0.0,2.5,64,0.00,,,0.00,WSDL version 420,2013-05-27 08:27:00,
2013-05-27 04:29:00,57.6,45.5,29.00,South,180,0.9,2.5,64,0.00,,,0.00,WSDL version 420,2013-05-27 08:29:00,
2013-05-27 04:35:00,57.4,45.3,29.00,South,171,1.7,3.1,64,0.00,,,0.00,WSDL version 420,2013-05-27 08:35:00,
2013-05-27 04:37:00,57.4,45.3,29.00,South,180,1.6,3.1,64,0.00,,,0.00,WSDL version 420,2013-05-27 08:37:00,
2013-05-27 04:39:00,57.4,45.3,29.00,South,180,2.0,3.1,64,0.00,,,0.00,WSDL version 420,2013-05-27 08:39:00,
2013-05-27 04:41:00,57.4,45.3,29.03,South,180,0.8,3.1,64,0.00,,,0.00,WSDL version 420,2013-05-27 08:41:00,
2013-05-27 04:43:00,57.4,45.3,29.03,South,180,0.0,3.1,64,0.00,,,0.00,WSDL version 420,2013-05-27 08:43:00,
2013-05-27 04:45:00,57.4,45.3,29.03,South,180,0.0,2.2,64,0.00,,,0.00,WSDL version 420,2013-05-27 08:45:00,
2013-05-27 04:47:00,57.4,45.3,29.03,South,180,1.3,2.2,64,0.00,,,0.00,WSDL version 420,2013-05-27 08:47:00,
2013-05-27 04:51:00,57.4,45.3,29.03,SSE,165,0.0,0.0,64,0.00,,,0.00,WSDL version 420,2013-05-27 08:51:00,
2013-05-27 04:53:00,57.4,45.3,29.03,SSE,161,0.0,0.0,64,0.00,,,0.00,WSDL version 420,2013-05-27 08:53:00,
2013-05-27 04:55:00,57.4,45.3,29.03,South,180,0.0,0.0,64,0.00,,,0.00,WSDL version 420,2013-05-27 08:55:00,
2013-05-27 04:59:00,57.4,45.3,29.03,South,180,0.0,0.0,64,0.00,,,0.00,WSDL version 420,2013-05-27 08:59:00,
2013-05-27 05:01:00,57.4,45.3,29.03,South,180,0.0,0.0,64,0.00,,,0.00,WSDL version 420,2013-05-27 09:01:00,
2013-05-27 05:03:00,57.4,45.3,29.03,South,180,0.0,0.0,64,0.00,,,0.00,WSDL version 420,2013-05-27 09:03:00,
2013-05-27 05:05:00,57.4,45.4,29.03,South,180,0.0,0.0,65,0.00,,,0.00,WSDL version 420,2013-05-27 09:05:00,
2013-05-27 05:07:00,57.4,45.5,29.03,South,180,0.0,0.0,65,0.00,,,0.00,WSDL version 420,2013-05-27 09:07:00,
2013-05-27 05:09:00,57.4,45.7,29.03,South,180,0.0,0.0,65,0.00,,,0.00,WSDL version 420,2013-05-27 09:09:00,
2013-05-27 05:11:00,57.4,45.7,29.03,South,180,0.0,0.0,65,0.00,,,0.00,WSDL version 420,2013-05-27 09:11:00,
2013-05-27 05:13:00,57.4,45.8,29.03,South,180,0.0,0.0,65,0.00,,,0.00,WSDL version 420,2013-05-27 09:13:00,
2013-05-27 05:19:00,57.6,46.0,29.03,South,180,1.6,2.0,66,0.00,,,0.00,WSDL version 420,2013-05-27 09:19:00,
2013-05-27 05:21:00,57.6,46.2,29.03,South,180,0.4,2.0,66,0.00,,,0.00,WSDL version 420,2013-05-27 09:21:00,
2013-05-27 05:23:00,57.6,46.3,29.03,South,180,0.0,2.0,66,0.00,,,0.00,WSDL version 420,2013-05-27 09:23:00,
2013-05-27 05:27:00,57.7,46.4,29.03,South,169,0.0,1.1,66,0.00,,,0.00,WSDL version 420,2013-05-27 09:27:00,
2013-05-27 05:31:00,57.8,46.5,29.03,SSE,158,0.0,0.0,65,0.00,,,0.00,WSDL version 420,2013-05-27 09:31:00,
2013-05-27 05:33:00,57.9,46.4,29.03,SSE,158,0.0,0.0,65,0.00,,,0.00,WSDL version 420,2013-05-27 09:33:00,
2013-05-27 05:35:00,58.0,46.3,29.03,SSE,158,0.0,0.0,65,0.00,,,0.00,WSDL version 420,2013-05-27 09:35:00,
2013-05-27 05:39:00,58.1,46.4,29.03,SSE,158,0.0,0.0,65,0.00,,,0.00,WSDL version 420,2013-05-27 09:39:00,
2013-05-27 05:41:00,58.1,46.4,29.03,SSE,158,0.0,0.0,65,0.00,,,0.00,WSDL version 420,2013-05-27 09:41:00,
2013-05-27 05:43:00,58.1,46.4,29.03,SSE,149,0.0,0.0,65,0.00,,,0.00,WSDL version 420,2013-05-27 09:43:00,
2013-05-27 05:45:00,58.1,46.4,29.03,North,-999,-999.0,-999.0,65,0.00,,,0.00,WSDL version 420,2013-05-27 09:45:00,
2013-05-27 05:51:00,58.3,46.6,29.03,SE,135,0.0,0.0,65,0.00,,,0.00,WSDL version 420,2013-05-27 09:51:00,
2013-05-27 05:53:00,58.3,46.6,29.03,SSE,163,0.0,0.0,65,0.00,,,0.00,WSDL version 420,2013-05-27 09:53:00,
2013-05-27 05:57:00,58.3,46.6,29.03,South,180,0.0,0.0,65,0.00,,,0.00,WSDL version 420,2013-05-27 09:57:00,
2013-05-27 05:59:00,58.3,46.6,29.03,South,180,0.0,2.2,65,0.00,,,0.00,WSDL version 420,2013-05-27 09:59:00,
2013-05-27 06:03:00,58.2,46.5,29.03,South,180,1.5,2.2,65,0.00,,,0.00,WSDL version 420,2013-05-27 10:03:00,
2013-05-27 06:05:00,58.1,46.4,29.03,SSE,158,1.3,2.2,65,0.00,,,0.00,WSDL version 420,2013-05-27 10:05:00,
2013-05-27 06:09:00,58.0,46.3,29.03,South,169,0.7,2.2,65,0.00,,,0.00,WSDL version 420,2013-05-27 10:09:00,
2013-05-27 06:11:00,57.9,46.2,29.03,SSE,158,0.0,2.2,65,0.00,,,0.00,WSDL version 420,2013-05-27 10:11:00,
2013-05-27 06:15:00,57.8,46.2,29.03,South,180,0.0,1.3,65,0.00,,,0.00,WSDL version 420,2013-05-27 10:15:00,
2013-05-27 06:19:00,57.7,46.0,29.03,South,180,0.0,0.0,65,0.00,,,0.00,WSDL version 420,2013-05-27 10:19:00,
2013-05-27 06:25:00,57.6,46.3,29.03,South,180,0.0,0.0,66,0.00,,,0.00,WSDL version 420,2013-05-27 10:25:00,
2013-05-27 06:27:00,57.6,46.3,29.03,South,180,0.0,0.0,66,0.00,,,0.00,WSDL version 420,2013-05-27 10:27:00,
2013-05-27 06:31:00,57.4,46.2,29.03,South,180,0.0,0.0,66,0.00,,,0.00,WSDL version 420,2013-05-27 10:31:00,
2013-05-27 06:33:00,57.4,46.1,29.03,South,180,0.0,0.0,66,0.00,,,0.00,WSDL version 420,2013-05-27 10:33:00,
2013-05-27 06:35:00,57.4,46.1,29.03,South,180,0.0,0.0,66,0.00,,,0.00,WSDL version 420,2013-05-27 10:35:00,
2013-05-27 06:37:00,57.4,46.1,29.03,South,180,0.0,0.0,66,0.00,,,0.00,WSDL version 420,2013-05-27 10:37:00,
2013-05-27 06:39:00,57.4,46.1,29.03,South,180,0.0,0.0,66,0.00,,,0.00,WSDL version 420,2013-05-27 10:39:00,
2013-05-27 06:43:00,57.4,46.2,29.06,South,180,0.0,0.0,67,0.00,,,0.00,WSDL version 420,2013-05-27 10:43:00,
2013-05-27 06:45:00,57.4,46.3,29.06,South,180,0.0,0.0,67,0.00,,,0.00,WSDL version 420,2013-05-27 10:45:00,
2013-05-27 06:51:00,57.2,46.4,29.06,South,180,0.0,0.0,67,0.00,,,0.00,WSDL version 420,2013-05-27 10:51:00,
2013-05-27 06:53:00,57.2,46.3,29.06,North,0,0.0,0.0,67,0.00,,,0.00,WSDL version 420,2013-05-27 10:53:00,
2013-05-27 06:55:00,57.2,46.3,29.06,South,180,0.0,0.0,67,0.00,,,0.00,WSDL version 420,2013-05-27 10:55:00,
2013-05-27 06:57:00,57.2,46.4,29.06,South,180,0.0,0.0,67,0.00,,,0.00,WSDL version 420,2013-05-27 10:57:00,
2013-05-27 06:59:00,57.2,46.4,29.06,South,180,0.0,0.0,67,0.00,,,0.00,WSDL version 420,2013-05-27 10:59:00,
2013-05-27 07:01:00,57.2,46.4,29.06,South,180,0.0,0.0,67,0.00,,,0.00,WSDL version 420,2013-05-27 11:01:00,
2013-05-27 07:03:00,57.3,46.5,29.06,SE,146,0.0,0.0,67,0.00,,,0.00,WSDL version 420,2013-05-27 11:03:00,
2013-05-27 07:05:00,57.4,46.5,29.06,SE,135,0.0,0.0,67,0.00,,,0.00,WSDL version 420,2013-05-27 11:05:00,
2013-05-27 07:07:00,57.4,46.5,29.06,SE,135,0.0,0.0,67,0.00,,,0.00,WSDL version 420,2013-05-27 11:07:00,
2013-05-27 07:11:00,57.3,46.4,29.06,SE,135,0.0,0.0,67,0.00,,,0.00,WSDL version 420,2013-05-27 11:11:00,
2013-05-27 07:13:00,57.2,46.4,29.06,SE,135,0.0,0.0,67,0.00,,,0.00,WSDL version 420,2013-05-27 11:13:00,
2013-05-27 07:15:00,57.2,46.5,29.06,SE,135,0.0,0.0,68,0.00,,,0.00,WSDL version 420,2013-05-27 11:15:00,
2013-05-27 07:17:00,57.2,46.6,29.06,ESE,113,0.0,0.0,68,0.00,,,0.00,WSDL version 420,2013-05-27 11:17:00,
2013-05-27 07:19:00,57.2,46.7,29.06,SSE,158,0.0,0.0,68,0.00,,,0.00,WSDL version 420,2013-05-27 11:19:00,
2013-05-27 07:21:00,57.2,46.8,29.06,SSE,158,0.0,0.0,68,0.00,,,0.00,WSDL version 420,2013-05-27 11:21:00,
2013-05-27 07:23:00,57.3,46.8,29.06,SSE,158,0.0,0.0,68,0.00,,,0.00,WSDL version 420,2013-05-27 11:23:00,
2013-05-27 07:25:00,57.4,46.9,29.06,SSE,158,0.0,0.0,68,0.00,,,0.00,WSDL version 420,2013-05-27 11:25:00,
2013-05-27 07:27:00,57.4,47.0,29.09,SSE,158,0.0,0.0,69,0.00,,,0.00,WSDL version 420,2013-05-27 11:27:00,
2013-05-27 07:29:00,57.4,47.2,29.09,SSE,158,0.0,0.0,69,0.00,,,0.00,WSDL version 420,2013-05-27 11:29:00,
2013-05-27 07:31:00,57.5,47.4,29.09,SSE,158,0.0,0.0,69,0.00,,,0.00,WSDL version 420,2013-05-27 11:31:00,
2013-05-27 07:37:00,57.7,47.8,29.09,SSE,158,0.0,1.3,70,0.00,,,0.00,WSDL version 420,2013-05-27 11:37:00,
2013-05-27 07:39:00,57.8,48.0,29.09,SSE,158,0.0,1.3,70,0.00,,,0.00,WSDL version 420,2013-05-27 11:39:00,
2013-05-27 07:43:00,58.0,48.3,29.06,SSE,158,0.0,1.3,70,0.00,,,0.00,WSDL version 420,2013-05-27 11:43:00,
2013-05-27 07:47:00,58.2,48.4,29.06,SSE,158,0.0,0.0,70,0.00,,,0.00,WSDL version 420,2013-05-27 11:47:00,
2013-05-27 07:49:00,58.3,48.6,29.06,North,0,0.0,0.0,70,0.00,,,0.00,WSDL version 420,2013-05-27 11:49:00,
2013-05-27 07:51:00,58.4,48.6,29.06,SSE,158,0.0,0.0,70,0.00,,,0.00,WSDL version 420,2013-05-27 11:51:00,
2013-05-27 07:53:00,58.5,48.6,29.06,SSE,158,0.0,0.0,69,0.00,,,0.00,WSDL version 420,2013-05-27 11:53:00,
2013-05-27 07:57:00,58.7,48.9,29.06,SSE,158,0.0,0.0,70,0.00,,,0.00,WSDL version 420,2013-05-27 11:57:00,
2013-05-27 07:59:00,58.8,49.0,29.06,SSE,158,0.0,0.0,69,0.00,,,0.00,WSDL version 420,2013-05-27 11:59:00,
2013-05-27 08:01:00,58.9,49.0,29.06,SSE,158,0.0,0.0,69,0.00,,,0.00,WSDL version 420,2013-05-27 12:01:00,
2013-05-27 08:05:00,59.1,49.0,29.06,SSE,158,0.0,0.0,69,0.00,,,0.00,WSDL version 420,2013-05-27 12:05:00,
2013-05-27 08:09:00,59.4,49.2,29.06,ESE,113,0.0,0.0,69,0.00,,,0.00,WSDL version 420,2013-05-27 12:09:00,
2013-05-27 08:11:00,59.5,49.3,29.06,ESE,113,0.0,0.0,69,0.00,,,0.00,WSDL version 420,2013-05-27 12:11:00,
2013-05-27 08:13:00,59.6,49.4,29.06,ESE,113,0.0,0.0,69,0.00,,,0.00,WSDL version 420,2013-05-27 12:13:00,
2013-05-27 08:15:00,59.8,49.4,29.06,ESE,113,0.0,0.0,68,0.00,,,0.00,WSDL version 420,2013-05-27 12:15:00,
2013-05-27 08:21:00,60.2,49.6,29.06,SE,135,0.0,0.0,68,0.00,,,0.00,WSDL version 420,2013-05-27 12:21:00,
2013-05-27 08:23:00,60.4,49.8,29.06,SE,135,0.0,0.0,68,0.00,,,0.00,WSDL version 420,2013-05-27 12:23:00,
2013-05-27 08:27:00,60.7,49.9,29.06,North,0,0.0,0.0,67,0.00,,,0.00,WSDL version 420,2013-05-27 12:27:00,
2013-05-27 08:29:00,60.9,49.9,29.06,ESE,120,0.0,0.0,67,0.00,,,0.00,WSDL version 420,2013-05-27 12:29:00,
2013-05-27 08:33:00,61.2,50.0,29.06,SSE,158,0.0,0.0,66,0.00,,,0.00,WSDL version 420,2013-05-27 12:33:00,
2013-05-27 08:35:00,61.3,50.0,29.06,SSE,165,0.0,0.0,66,0.00,,,0.00,WSDL version 420,2013-05-27 12:35:00,
2013-05-27 08:37:00,61.6,50.0,29.06,ESE,118,0.0,0.0,65,0.00,,,0.00,WSDL version 420,2013-05-27 12:37:00,
2013-05-27 08:39:00,61.7,50.1,29.06,ESE,113,0.0,0.0,65,0.00,,,0.00,WSDL version 420,2013-05-27 12:39:00,
2013-05-27 08:45:00,62.2,50.3,29.09,ESE,113,0.0,0.0,65,0.00,,,0.00,WSDL version 420,2013-05-27 12:45:00,
2013-05-27 08:47:00,62.3,50.4,29.09,ESE,113,0.0,0.0,65,0.00,,,0.00,WSDL version 420,2013-05-27 12:47:00,
2013-05-27 08:51:00,62.6,50.7,29.09,NE,53,0.0,0.0,65,0.00,,,0.00,WSDL version 420,2013-05-27 12:51:00,
2013-05-27 08:53:00,62.8,51.0,29.09,NE,45,0.0,0.0,66,0.00,,,0.00,WSDL version 420,2013-05-27 12:53:00,
2013-05-27 08:55:00,62.9,51.3,29.09,NE,45,0.0,0.0,66,0.00,,,0.00,WSDL version 420,2013-05-27 12:55:00,
2013-05-27 08:57:00,63.1,51.5,29.09,NE,45,0.0,0.0,66,0.00,,,0.00,WSDL version 420,2013-05-27 12:57:00,
2013-05-27 08:59:00,63.3,51.7,29.09,NE,45,0.0,0.0,66,0.00,,,0.00,WSDL version 420,2013-05-27 12:59:00,
2013-05-27 09:01:00,63.4,51.8,29.09,NE,45,0.0,0.0,66,0.00,,,0.00,WSDL version 420,2013-05-27 13:01:00,
2013-05-27 09:03:00,63.5,52.0,29.09,NE,45,0.0,0.0,66,0.00,,,0.00,WSDL version 420,2013-05-27 13:03:00,
2013-05-27 09:07:00,63.9,52.2,29.09,NE,45,0.0,0.0,65,0.00,,,0.00,WSDL version 420,2013-05-27 13:07:00,
2013-05-27 09:09:00,64.0,52.2,29.09,NE,45,0.0,0.0,65,0.00,,,0.00,WSDL version 420,2013-05-27 13:09:00,
2013-05-27 09:13:00,64.3,51.9,29.09,NNE,23,0.0,0.0,63,0.00,,,0.00,WSDL version 420,2013-05-27 13:13:00,
2013-05-27 09:15:00,64.4,51.7,29.09,East,79,0.0,0.0,63,0.00,,,0.00,WSDL version 420,2013-05-27 13:15:00,
2013-05-27 09:17:00,64.6,51.5,29.09,ESE,122,0.0,0.0,62,0.00,,,0.00,WSDL version 420,2013-05-27 13:17:00,
2013-05-27 09:21:00,64.9,51.5,29.09,ESE,105,0.0,0.0,61,0.00,,,0.00,WSDL version 420,2013-05-27 13:21:00,
2013-05-27 09:23:00,65.1,51.2,29.09,SW,225,0.0,0.0,60,0.00,,,0.00,WSDL version 420,2013-05-27 13:23:00,
2013-05-27 09:25:00,65.2,51.1,29.09,SE,124,0.0,0.0,60,0.00,,,0.00,WSDL version 420,2013-05-27 13:25:00,
2013-05-27 09:27:00,65.4,51.1,29.09,SE,126,0.0,0.0,59,0.00,,,0.00,WSDL version 420,2013-05-27 13:27:00,
2013-05-27 09:31:00,65.8,50.9,29.09,South,180,0.5,0.0,58,0.00,,,0.00,WSDL version 420,2013-05-27 13:31:00,
2013-05-27 09:33:00,65.9,50.8,29.09,South,180,0.0,0.0,58,0.00,,,0.00,WSDL version 420,2013-05-27 13:33:00,
2013-05-27 09:35:00,66.1,50.6,29.09,South,180,0.0,0.0,57,0.00,,,0.00,WSDL version 420,2013-05-27 13:35:00,
2013-05-27 09:37:00,66.1,50.4,29.09,South,180,0.0,0.0,56,0.00,,,0.00,WSDL version 420,2013-05-27 13:37:00,
2013-05-27 09:39:00,66.3,50.3,29.09,NW,308,0.0,0.0,56,0.00,,,0.00,WSDL version 420,2013-05-27 13:39:00,
2013-05-27 09:43:00,66.5,50.4,29.09,East,83,0.0,0.0,56,0.00,,,0.00,WSDL version 420,2013-05-27 13:43:00,
2013-05-27 09:45:00,66.7,50.4,29.09,NE,45,0.0,0.0,55,0.00,,,0.00,WSDL version 420,2013-05-27 13:45:00,
2013-05-27 09:47:00,66.9,50.4,29.09,NE,38,0.0,0.0,55,0.00,,,0.00,WSDL version 420,2013-05-27 13:47:00,
2013-05-27 09:49:00,67.1,50.4,29.09,NW,315,0.0,0.0,55,0.00,,,0.00,WSDL version 420,2013-05-27 13:49:00,
2013-05-27 09:51:00,67.2,50.3,29.09,NW,315,0.0,0.0,54,0.00,,,0.00,WSDL version 420,2013-05-27 13:51:00,
2013-05-27 09:53:00,67.4,50.3,29.09,NW,315,0.0,0.0,54,0.00,,,0.00,WSDL version 420,2013-05-27 13:53:00,
2013-05-27 09:55:00,67.5,50.3,29.09,NW,321,0.0,0.0,54,0.00,,,0.00,WSDL version 420,2013-05-27 13:55:00,
2013-05-27 09:59:00,67.7,50.0,29.09,NNW,338,0.0,0.0,53,0.00,,,0.00,WSDL version 420,2013-05-27 13:59:00,
2013-05-27 10:01:00,67.8,49.8,29.09,SSE,158,0.0,0.0,52,0.00,,,0.00,WSDL version 420,2013-05-27 14:01:00,
2013-05-27 10:03:00,67.9,49.5,29.09,North,-999,-999.0,-999.0,51,0.00,,,0.00,WSDL version 420,2013-05-27 14:03:00,
2013-05-27 10:07:00,68.2,49.3,29.09,NW,315,0.0,0.0,51,0.00,,,0.00,WSDL version 420,2013-05-27 14:07:00,
2013-05-27 10:09:00,68.3,49.3,29.09,NW,315,0.0,0.0,51,0.00,,,0.00,WSDL version 420,2013-05-27 14:09:00,
2013-05-27 10:11:00,68.5,49.3,29.09,NW,315,0.0,0.0,50,0.00,,,0.00,WSDL version 420,2013-05-27 14:11:00,
2013-05-27 10:15:00,68.8,49.3,29.09,East,79,0.0,0.0,50,0.00,,,0.00,WSDL version 420,2013-05-27 14:15:00,
2013-05-27 10:19:00,69.1,49.4,29.09,NE,45,0.0,0.0,50,0.00,,,0.00,WSDL version 420,2013-05-27 14:19:00,
2013-05-27 10:23:00,69.4,49.7,29.09,East,90,1.3,2.2,49,0.00,,,0.00,WSDL version 420,2013-05-27 14:23:00,
2013-05-27 10:25:00,69.6,49.6,29.09,NE,45,0.0,2.2,48,0.00,,,0.00,WSDL version 420,2013-05-27 14:25:00,
2013-05-27 10:27:00,69.8,49.4,29.09,NNE,23,0.0,2.2,48,0.00,,,0.00,WSDL version 420,2013-05-27 14:27:00,
2013-05-27 10:31:00,70.0,49.1,29.09,North,360,0.0,1.6,47,0.00,,,0.00,WSDL version 420,2013-05-27 14:31:00,
2013-05-27 10:33:00,70.1,49.0,29.09,North,360,0.0,0.0,47,0.00,,,0.00,WSDL version 420,2013-05-27 14:33:00,
2013-05-27 10:35:00,70.2,49.0,29.09,North,-999,-999.0,-999.0,47,0.00,,,0.00,WSDL version 420,2013-05-27 14:35:00,
2013-05-27 10:39:00,70.5,49.0,29.09,North,-999,-999.0,-999.0,47,0.00,,,0.00,WSDL version 420,2013-05-27 14:39:00,
2013-05-27 10:41:00,70.6,49.1,29.09,NW,315,0.0,0.0,47,0.00,,,0.00,WSDL version 420,2013-05-27 14:41:00,
2013-05-27 10:45:00,71.0,49.2,29.06,NNW,330,0.6,1.6,46,0.00,,,0.00,WSDL version 420,2013-05-27 14:45:00,
2013-05-27 10:47:00,71.1,49.0,29.06,NW,304,0.0,1.6,45,0.00,,,0.00,WSDL version 420,2013-05-27 14:47:00,
2013-05-27 10:49:00,71.3,49.1,29.06,South,169,0.0,1.6,45,0.00,,,0.00,WSDL version 420,2013-05-27 14:49:00,
2013-05-27 10:51:00,71.5,49.1,29.06,South,180,0.0,3.6,44,0.00,,,0.00,WSDL version 420,2013-05-27 14:51:00,
2013-05-27 10:55:00,72.0,48.8,29.06,SSW,203,1.1,3.6,43,0.00,,,0.00,WSDL version 420,2013-05-27 14:55:00,
2013-05-27 10:57:00,72.1,48.9,29.09,West,270,0.0,3.6,44,0.00,,,0.00,WSDL version 420,2013-05-27 14:57:00,
2013-05-27 11:03:00,72.6,49.1,29.09,SE,135,0.8,2.2,43,0.00,,,0.00,WSDL version 420,2013-05-27 15:03:00,
2013-05-27 11:05:00,72.7,49.1,29.09,East,98,0.4,2.2,43,0.00,,,0.00,WSDL version 420,2013-05-27 15:05:00,
2013-05-27 11:07:00,72.9,49.1,29.09,NW,315,0.0,2.2,43,0.00,,,0.00,WSDL version 420,2013-05-27 15:07:00,
2013-05-27 11:09:00,73.1,49.2,29.09,SE,135,0.0,2.2,42,0.00,,,0.00,WSDL version 420,2013-05-27 15:09:00,
2013-05-27 11:11:00,73.3,49.3,29.06,North,0,0.0,2.2,43,0.00,,,0.00,WSDL version 420,2013-05-27 15:11:00,
2013-05-27 11:13:00,73.5,49.2,29.06,West,270,0.0,0.0,42,0.00,,,0.00,WSDL version 420,2013-05-27 15:13:00,
2013-05-27 11:15:00,73.6,48.6,29.06,SW,214,1.1,2.0,39,0.00,,,0.00,WSDL version 420,2013-05-27 15:15:00,
2013-05-27 11:21:00,73.9,47.6,29.06,West,270,0.0,2.0,40,0.00,,,0.00,WSDL version 420,2013-05-27 15:21:00,
2013-05-27 11:23:00,74.2,48.4,29.06,North,0,0.0,2.0,41,0.00,,,0.00,WSDL version 420,2013-05-27 15:23:00,
2013-05-27 11:25:00,74.3,49.0,29.06,North,353,0.0,0.0,41,0.00,,,0.00,WSDL version 420,2013-05-27 15:25:00,
2013-05-27 11:29:00,74.7,49.3,29.06,NW,315,0.0,0.0,41,0.00,,,0.00,WSDL version 420,2013-05-27 15:29:00,
2013-05-27 11:31:00,74.8,49.3,29.06,SSE,158,0.0,0.9,41,0.00,,,0.00,WSDL version 420,2013-05-27 15:31:00,
2013-05-27 11:35:00,75.2,49.0,29.06,WSW,239,0.0,0.9,39,0.00,,,0.00,WSDL version 420,2013-05-27 15:35:00,
2013-05-27 11:37:00,75.3,48.6,29.06,SW,225,1.3,1.3,37,0.00,,,0.00,WSDL version 420,2013-05-27 15:37:00,
2013-05-27 11:39:00,75.5,48.2,29.06,South,180,0.0,1.3,38,0.00,,,0.00,WSDL version 420,2013-05-27 15:39:00,
2013-05-27 11:43:00,75.7,47.3,29.06,South,191,0.0,1.3,37,0.00,,,0.00,WSDL version 420,2013-05-27 15:43:00,
2013-05-27 11:46:00,75.9,47.3,29.06,SE,146,0.6,1.6,36,0.00,,,0.00,WSDL version 420,2013-05-27 15:46:00,
2013-05-27 11:49:00,76.1,47.4,29.06,ESE,113,1.1,2.0,36,0.00,,,0.00,WSDL version 420,2013-05-27 15:49:00,
2013-05-27 11:51:00,76.2,47.4,29.06,North,-999,-999.0,-999.0,36,0.00,,,0.00,WSDL version 420,2013-05-27 15:51:00,
2013-05-27 11:53:00,76.3,47.3,29.06,SSE,165,0.3,2.0,36,0.00,,,0.00,WSDL version 420,2013-05-27 15:53:00,
2013-05-27 11:57:00,76.7,47.9,29.06,North,-999,-999.0,-999.0,36,0.00,,,0.00,WSDL version 420,2013-05-27 15:57:00,
2013-05-27 12:01:00,77.1,47.5,29.06,NW,315,0.0,0.9,35,0.00,,,0.00,WSDL version 420,2013-05-27 16:01:00,
2013-05-27 12:05:00,77.2,47.5,29.06,North,-999,-999.0,-999.0,35,0.00,,,0.00,WSDL version 420,2013-05-27 16:05:00,
2013-05-27 12:07:00,77.3,47.4,29.06,North,-999,-999.0,-999.0,34,0.00,,,0.00,WSDL version 420,2013-05-27 16:07:00,
2013-05-27 12:11:00,77.5,47.2,29.06,North,-999,-999.0,-999.0,35,0.00,,,0.00,WSDL version 420,2013-05-27 16:11:00,
2013-05-27 12:17:00,78.1,47.9,29.09,South,191,0.0,1.6,34,0.00,,,0.00,WSDL version 420,2013-05-27 16:17:00,
2013-05-27 12:23:00,78.4,47.5,29.09,South,180,1.1,0.0,34,0.00,,,0.00,WSDL version 420,2013-05-27 16:23:00,
2013-05-27 12:25:00,78.6,47.6,29.09,South,180,0.0,0.0,34,0.00,,,0.00,WSDL version 420,2013-05-27 16:25:00,
2013-05-27 12:29:00,78.6,47.3,29.09,West,270,0.0,0.0,33,0.00,,,0.00,WSDL version 420,2013-05-27 16:29:00,
2013-05-27 12:33:00,78.7,47.2,29.09,NNW,338,0.0,0.0,33,0.00,,,0.00,WSDL version 420,2013-05-27 16:33:00,
2013-05-27 12:35:00,78.8,47.1,29.09,North,0,0.0,0.0,32,0.00,,,0.00,WSDL version 420,2013-05-27 16:35:00,
2013-05-27 12:37:00,78.8,47.2,29.09,SSW,203,0.0,0.0,33,0.00,,,0.00,WSDL version 420,2013-05-27 16:37:00,
2013-05-27 12:43:00,79.4,47.1,29.06,North,-999,-999.0,-999.0,32,0.00,,,0.00,WSDL version 420,2013-05-27 16:43:00,
2013-05-27 12:45:00,79.6,47.2,29.06,SSW,210,0.0,1.3,32,0.00,,,0.00,WSDL version 420,2013-05-27 16:45:00,
2013-05-27 12:47:00,79.8,47.3,29.06,North,0,0.0,1.3,32,0.00,,,0.00,WSDL version 420,2013-05-27 16:47:00,
2013-05-27 12:51:00,79.7,47.3,29.06,South,180,1.1,1.3,32,0.00,,,0.00,WSDL version 420,2013-05-27 16:51:00,
2013-05-27 12:53:00,79.8,47.4,29.06,North,-999,-999.0,-999.0,32,0.00,,,0.00,WSDL version 420,2013-05-27 16:53:00,
2013-05-27 12:55:00,80.0,47.4,29.06,East,90,1.1,1.1,31,0.00,,,0.00,WSDL version 420,2013-05-27 16:55:00,
2013-05-27 12:57:00,80.2,47.5,29.06,NNE,23,1.6,1.6,32,0.00,,,0.00,WSDL version 420,2013-05-27 16:57:00,
2013-05-27 13:01:00,80.2,47.7,29.06,NW,315,0.0,1.3,32,0.00,,,0.00,WSDL version 420,2013-05-27 17:01:00,
2013-05-27 13:03:00,80.2,48.0,29.06,WSW,240,0.0,1.3,33,0.00,,,0.00,WSDL version 420,2013-05-27 17:03:00,
2013-05-27 13:07:00,80.4,48.0,29.06,SE,135,0.7,1.1,32,0.00,,,0.00,WSDL version 420,2013-05-27 17:07:00,
2013-05-27 13:09:00,80.6,48.1,29.06,SSE,158,0.0,1.1,32,0.00,,,0.00,WSDL version 420,2013-05-27 17:09:00,
2013-05-27 13:13:00,80.9,48.2,29.06,NW,304,0.0,1.1,31,0.00,,,0.00,WSDL version 420,2013-05-27 17:13:00,
2013-05-27 13:15:00,81.0,48.0,29.06,WSW,242,1.2,1.2,31,0.00,,,0.00,WSDL version 420,2013-05-27 17:15:00,
2013-05-27 13:17:00,81.0,47.7,29.06,West,281,0.0,1.1,31,0.00,,,0.00,WSDL version 420,2013-05-27 17:17:00,
2013-05-27 13:19:00,81.0,47.7,29.06,SW,214,0.0,1.1,32,0.00,,,0.00,WSDL version 420,2013-05-27 17:19:00,
2013-05-27 13:23:00,81.1,48.0,29.06,ENE,62,0.4,2.0,31,0.00,,,0.00,WSDL version 420,2013-05-27 17:23:00,
2013-05-27 13:25:00,81.2,47.7,29.06,SW,218,0.0,2.0,31,0.00,,,0.00,WSDL version 420,2013-05-27 17:25:00,
2013-05-27 13:27:00,81.3,47.9,29.06,SW,225,1.1,2.0,31,0.00,,,0.00,WSDL version 420,2013-05-27 17:27:00,
2013-05-27 13:29:00,81.4,48.1,29.06,SSE,158,0.0,2.0,31,0.00,,,0.00,WSDL version 420,2013-05-27 17:29:00,
2013-05-27 13:31:00,81.5,48.2,29.06,SSE,158,0.0,1.6,32,0.00,,,0.00,WSDL version 420,2013-05-27 17:31:00,
2013-05-27 13:33:00,81.6,48.2,29.06,WNW,297,0.0,1.6,31,0.00,,,0.00,WSDL version 420,2013-05-27 17:33:00,
2013-05-27 13:37:00,81.4,47.9,29.06,SW,225,0.0,1.6,31,0.00,,,0.00,WSDL version 420,2013-05-27 17:37:00,
2013-05-27 13:39:00,81.4,47.9,29.06,SW,225,0.0,1.6,31,0.00,,,0.00,WSDL version 420,2013-05-27 17:39:00,
2013-05-27 13:43:00,81.5,48.2,29.06,WNW,285,0.4,2.7,31,0.00,,,0.00,WSDL version 420,2013-05-27 17:43:00,
2013-05-27 13:45:00,81.6,48.1,29.06,NW,315,0.0,2.7,31,0.00,,,0.00,WSDL version 420,2013-05-27 17:45:00,
2013-05-27 13:49:00,81.8,48.4,29.06,SE,135,0.0,3.4,31,0.00,,,0.00,WSDL version 420,2013-05-27 17:49:00,
2013-05-27 13:51:00,81.8,48.0,29.06,ESE,113,1.1,3.4,30,0.00,,,0.00,WSDL version 420,2013-05-27 17:51:00,
2013-05-27 13:55:00,82.0,48.3,29.06,SSW,195,1.0,3.4,31,0.00,,,0.00,WSDL version 420,2013-05-27 17:55:00,
2013-05-27 13:59:00,82.0,48.4,29.06,ESE,117,0.7,2.5,31,0.00,,,0.00,WSDL version 420,2013-05-27 17:59:00,
2013-05-27 14:01:00,82.0,48.3,29.06,NW,315,0.5,2.5,31,0.00,,,0.00,WSDL version 420,2013-05-27 18:01:00,
2013-05-27 14:05:00,82.2,48.6,29.06,SSW,194,0.5,2.5,31,0.00,,,0.00,WSDL version 420,2013-05-27 18:05:00,
2013-05-27 14:07:00,82.4,48.4,29.06,North,0,0.0,2.5,30,0.00,,,0.00,WSDL version 420,2013-05-27 18:07:00,
2013-05-27 14:09:00,82.6,48.2,29.06,West,270,1.6,2.2,30,0.00,,,0.00,WSDL version 420,2013-05-27 18:09:00,
2013-05-27 14:11:00,82.6,48.0,29.06,West,270,0.0,2.2,30,0.00,,,0.00,WSDL version 420,2013-05-27 18:11:00,
2013-05-27 14:15:00,82.7,48.3,29.06,NW,315,0.0,0.9,31,0.00,,,0.00,WSDL version 420,2013-05-27 18:15:00,
2013-05-27 14:21:00,82.9,48.3,29.06,SE,124,0.4,2.5,30,0.00,,,0.00,WSDL version 420,2013-05-27 18:21:00,
2013-05-27 14:23:00,83.0,48.4,29.06,NW,315,0.0,2.5,30,0.00,,,0.00,WSDL version 420,2013-05-27 18:23:00,
2013-05-27 14:25:00,82.9,48.2,29.06,SW,225,2.0,2.5,30,0.00,,,0.00,WSDL version 420,2013-05-27 18:25:00,
2013-05-27 14:29:00,82.9,48.4,29.06,NW,315,0.0,2.5,30,0.00,,,0.00,WSDL version 420,2013-05-27 18:29:00,
2013-05-27 14:31:00,82.9,48.3,29.06,NW,315,0.0,2.5,30,0.00,,,0.00,WSDL version 420,2013-05-27 18:31:00,
2013-05-27 14:44:00,-999.0,-99.9,29.06,North,-999,-999.0,-999.0,-999,-99.99,,,-99.99,WSDL version 420,2013-05-27 18:44:00,
2013-05-27 14:52:00,-999.0,-99.9,29.06,North,-999,-999.0,-999.0,-999,-99.99,,,-99.99,WSDL version 420,2013-05-27 18:52:00,
2013-05-27 14:57:00,-999.0,-99.9,29.06,North,-999,-999.0,-999.0,-999,-99.99,,,-99.99,WSDL version 420,2013-05-27 18:57:00,
2013-05-27 15:15:00,-999.0,-99.9,29.06,North,-999,-999.0,-999.0,-999,-99.99,,,-99.99,WSDL version 420,2013-05-27 19:15:00,
2013-05-27 15:24:00,82.9,47.5,29.06,NE,34,0.0,0.0,29,0.00,,,0.00,WSDL version 420,2013-05-27 19:24:00,
2013-05-27 15:26:00,82.9,47.4,29.06,SW,225,0.0,0.0,29,0.00,,,0.00,WSDL version 420,2013-05-27 19:26:00,
2013-05-27 15:30:00,82.7,47.2,29.03,West,270,0.0,0.0,29,0.00,,,0.00,WSDL version 420,2013-05-27 19:30:00,
2013-05-27 15:32:00,82.5,47.2,29.03,North,0,0.0,0.0,30,0.00,,,0.00,WSDL version 420,2013-05-27 19:32:00,
2013-05-27 15:34:00,82.3,47.4,29.03,SSE,158,0.0,0.0,30,0.00,,,0.00,WSDL version 420,2013-05-27 19:34:00,
2013-05-27 15:36:00,82.2,47.6,29.03,WSW,248,0.0,0.0,30,0.00,,,0.00,WSDL version 420,2013-05-27 19:36:00,
2013-05-27 15:38:00,82.1,47.6,29.03,North,-999,-999.0,-999.0,30,0.00,,,0.00,WSDL version 420,2013-05-27 19:38:00,
2013-05-27 15:40:00,82.0,47.6,29.03,NE,45,0.0,1.3,30,0.00,,,0.00,WSDL version 420,2013-05-27 19:40:00,
2013-05-27 15:44:00,81.9,47.5,29.03,South,191,0.0,1.3,30,0.00,,,0.00,WSDL version 420,2013-05-27 19:44:00,
2013-05-27 15:46:00,81.8,47.4,29.03,South,191,0.4,1.3,30,0.00,,,0.00,WSDL version 420,2013-05-27 19:46:00,
2013-05-27 15:48:00,81.7,47.3,29.03,SSE,158,0.9,1.3,30,0.00,,,0.00,WSDL version 420,2013-05-27 19:48:00,
2013-05-27 15:50:00,81.6,47.2,29.03,South,180,1.1,0.0,30,0.00,,,0.00,WSDL version 420,2013-05-27 19:50:00,
2013-05-27 15:54:00,81.5,47.1,29.03,North,0,0.0,0.0,30,0.00,,,0.00,WSDL version 420,2013-05-27 19:54:00,
2013-05-27 16:00:00,81.1,46.8,-100.00,North,-999,-999.0,-999.0,30,-99.99,,,-99.99,WSDL version 420,2013-05-27 20:00:00,
2013-05-27 16:04:00,80.8,46.5,29.03,SSW,203,0.0,1.3,30,0.00,,,0.00,WSDL version 420,2013-05-27 20:04:00,
2013-05-27 16:10:00,80.5,46.2,29.03,SE,124,1.6,2.2,30,0.00,,,0.00,WSDL version 420,2013-05-27 20:10:00,
2013-05-27 16:14:00,80.3,46.1,29.03,SW,225,0.0,2.2,30,0.00,,,0.00,WSDL version 420,2013-05-27 20:14:00,
2013-05-27 16:16:00,80.2,46.1,29.03,North,-999,-999.0,-999.0,31,0.00,,,0.00,WSDL version 420,2013-05-27 20:16:00,
2013-05-27 16:18:00,80.1,46.3,29.03,North,-999,-999.0,-999.0,31,0.00,,,0.00,WSDL version 420,2013-05-27 20:18:00,
2013-05-27 16:20:00,79.9,46.6,29.03,North,-999,-999.0,-999.0,31,0.00,,,0.00,WSDL version 420,2013-05-27 20:20:00,
2013-05-27 16:22:00,79.9,46.6,29.03,SSE,158,0.0,0.0,31,0.00,,,0.00,WSDL version 420,2013-05-27 20:22:00,
2013-05-27 16:26:00,79.7,46.5,29.03,SE,135,0.0,0.0,31,0.00,,,0.00,WSDL version 420,2013-05-27 20:26:00,
2013-05-27 16:30:00,79.7,46.4,29.00,WSW,248,0.0,0.0,31,0.00,,,0.00,WSDL version 420,2013-05-27 20:30:00,
2013-05-27 16:32:00,79.6,46.4,29.00,WSW,248,0.0,0.0,31,0.00,,,0.00,WSDL version 420,2013-05-27 20:32:00,
2013-05-27 16:34:00,79.6,46.3,29.00,WSW,248,0.0,0.0,31,0.00,,,0.00,WSDL version 420,2013-05-27 20:34:00,
2013-05-27 16:36:00,79.5,46.3,29.00,East,90,2.0,0.0,31,0.00,,,0.00,WSDL version 420,2013-05-27 20:36:00,
2013-05-27 16:38:00,79.5,46.3,29.00,ENE,68,0.0,1.3,31,0.00,,,0.00,WSDL version 420,2013-05-27 20:38:00,
2013-05-27 16:40:00,79.5,46.3,29.00,NNE,23,0.0,1.3,31,0.00,,,0.00,WSDL version 420,2013-05-27 20:40:00,
2013-05-27 16:42:00,79.5,46.2,29.03,North,360,0.0,1.3,31,0.00,,,0.00,WSDL version 420,2013-05-27 20:42:00,
2013-05-27 16:46:00,79.3,46.1,29.03,ESE,113,0.0,2.0,31,0.00,,,0.00,WSDL version 420,2013-05-27 20:46:00,
2013-05-27 16:50:00,79.3,46.5,29.03,South,180,0.0,2.0,32,0.00,,,0.00,WSDL version 420,2013-05-27 20:50:00,
2013-05-27 16:52:00,79.3,46.9,29.03,South,180,0.0,2.0,32,0.00,,,0.00,WSDL version 420,2013-05-27 20:52:00,
2013-05-27 16:56:00,79.2,46.8,29.03,South,180,1.3,1.3,32,0.00,,,0.00,WSDL version 420,2013-05-27 20:56:00,
2013-05-27 17:00:00,79.1,47.0,29.03,South,191,0.0,1.3,33,0.00,,,0.00,WSDL version 420,2013-05-27 21:00:00,
2013-05-27 17:02:00,79.0,47.0,29.03,SE,129,0.3,2.2,32,0.00,,,0.00,WSDL version 420,2013-05-27 21:02:00,
2013-05-27 17:06:00,78.8,46.8,29.03,SW,236,0.0,2.2,33,0.00,,,0.00,WSDL version 420,2013-05-27 21:06:00,
2013-05-27 17:08:00,78.7,47.1,29.03,WSW,240,0.0,2.2,33,0.00,,,0.00,WSDL version 420,2013-05-27 21:08:00,
2013-05-27 17:10:00,78.6,47.3,29.03,East,79,0.0,2.2,34,0.00,,,0.00,WSDL version 420,2013-05-27 21:10:00,
2013-05-27 17:16:00,78.4,47.0,29.03,SSE,158,0.0,0.0,33,0.00,,,0.00,WSDL version 420,2013-05-27 21:16:00,
2013-05-27 17:18:00,78.4,47.0,29.03,SSE,158,0.0,0.0,33,0.00,,,0.00,WSDL version 420,2013-05-27 21:18:00,
2013-05-27 17:22:00,78.4,47.3,29.03,SSE,158,0.0,0.0,34,0.00,,,0.00,WSDL version 420,2013-05-27 21:22:00,
2013-05-27 17:26:00,78.3,47.6,29.03,SSE,158,0.0,0.0,34,0.00,,,0.00,WSDL version 420,2013-05-27 21:26:00,
2013-05-27 17:30:00,78.3,47.0,29.03,South,169,0.0,0.0,33,0.00,,,0.00,WSDL version 420,2013-05-27 21:30:00,
2013-05-27 17:32:00,78.3,46.8,29.03,South,186,0.0,0.0,33,0.00,,,0.00,WSDL version 420,2013-05-27 21:32:00,
2013-05-27 17:34:00,78.3,46.8,29.03,SSW,203,0.0,0.0,33,0.00,,,0.00,WSDL version 420,2013-05-27 21:34:00,
2013-05-27 17:40:00,78.2,46.9,29.03,SSE,167,0.0,0.0,33,0.00,,,0.00,WSDL version 420,2013-05-27 21:40:00,
2013-05-27 17:42:00,78.2,46.9,29.03,South,169,0.0,0.0,33,0.00,,,0.00,WSDL version 420,2013-05-27 21:42:00,
2013-05-27 17:44:00,78.1,46.7,29.03,SSE,158,0.0,0.0,33,0.00,,,0.00,WSDL version 420,2013-05-27 21:44:00,
2013-05-27 17:46:00,78.1,47.1,29.03,SSE,158,0.0,0.0,34,0.00,,,0.00,WSDL version 420,2013-05-27 21:46:00,
2013-05-27 17:50:00,78.1,47.4,29.03,North,0,0.0,0.0,34,0.00,,,0.00,WSDL version 420,2013-05-27 21:50:00,
2013-05-27 17:52:00,78.0,47.7,29.03,South,180,0.0,0.0,35,0.00,,,0.00,WSDL version 420,2013-05-27 21:52:00,
2013-05-27 17:56:00,77.9,48.1,29.03,South,180,0.0,0.0,35,0.00,,,0.00,WSDL version 420,2013-05-27 21:56:00,
2013-05-27 18:00:00,77.9,48.2,29.03,SE,124,0.0,0.0,36,0.00,,,0.00,WSDL version 420,2013-05-27 22:00:00,
2013-05-27 18:02:00,77.8,48.5,29.03,South,180,0.0,0.0,36,0.00,,,0.00,WSDL version 420,2013-05-27 22:02:00,
2013-05-27 18:04:00,77.8,48.7,29.03,North,-999,-999.0,-999.0,36,0.00,,,0.00,WSDL version 420,2013-05-27 22:04:00,
2013-05-27 18:08:00,77.6,48.6,29.03,North,-999,-999.0,-999.0,36,0.00,,,0.00,WSDL version 420,2013-05-27 22:08:00,
2013-05-27 18:10:00,77.6,48.3,29.03,South,180,0.0,0.0,35,0.00,,,0.00,WSDL version 420,2013-05-27 22:10:00,
2013-05-27 18:12:00,77.5,48.1,29.00,North,-999,-999.0,-999.0,35,0.00,,,0.00,WSDL version 420,2013-05-27 22:12:00,
2013-05-27 18:14:00,77.5,47.8,29.00,ESE,113,0.0,0.0,35,0.00,,,0.00,WSDL version 420,2013-05-27 22:14:00,
2013-05-27 18:16:00,77.5,48.0,29.00,SW,225,0.0,0.0,36,0.00,,,0.00,WSDL version 420,2013-05-27 22:16:00,
2013-05-27 18:18:00,77.5,48.2,29.00,South,180,0.0,1.1,36,0.00,,,0.00,WSDL version 420,2013-05-27 22:18:00,
2013-05-27 18:20:00,77.4,48.4,29.00,South,180,0.0,1.1,36,0.00,,,0.00,WSDL version 420,2013-05-27 22:20:00,
2013-05-27 18:22:00,77.4,48.4,29.00,North,-999,-999.0,-999.0,36,0.00,,,0.00,WSDL version 420,2013-05-27 22:22:00,
2013-05-27 18:26:00,77.3,48.1,29.00,North,-999,-999.0,-999.0,36,0.00,,,0.00,WSDL version 420,2013-05-27 22:26:00,
2013-05-27 18:32:00,77.1,48.2,29.00,South,180,0.0,0.0,36,0.00,,,0.00,WSDL version 420,2013-05-27 22:32:00,
2013-05-27 18:34:00,77.0,48.0,29.00,North,-999,-999.0,-999.0,36,0.00,,,0.00,WSDL version 420,2013-05-27 22:34:00,
2013-05-27 18:36:00,76.9,48.3,29.00,North,-999,-999.0,-999.0,37,0.00,,,0.00,WSDL version 420,2013-05-27 22:36:00,
2013-05-27 18:40:00,76.7,48.5,29.00,South,180,0.0,0.0,37,0.00,,,0.00,WSDL version 420,2013-05-27 22:40:00,
2013-05-27 18:42:00,76.7,48.6,29.00,South,180,0.0,0.0,38,0.00,,,0.00,WSDL version 420,2013-05-27 22:42:00,
2013-05-27 18:48:00,76.5,49.2,29.00,North,-999,-999.0,-999.0,39,0.00,,,0.00,WSDL version 420,2013-05-27 22:48:00,
2013-05-27 18:50:00,76.5,49.3,29.00,South,180,0.0,0.0,39,0.00,,,0.00,WSDL version 420,2013-05-27 22:50:00,
2013-05-27 18:54:00,76.3,49.6,29.00,North,0,0.0,0.0,39,0.00,,,0.00,WSDL version 420,2013-05-27 22:54:00,
2013-05-27 19:00:00,76.1,49.8,29.00,SE,135,0.0,0.0,40,0.00,,,0.00,WSDL version 420,2013-05-27 23:00:00,
2013-05-27 19:02:00,76.0,50.1,29.00,SE,135,0.0,0.0,41,0.00,,,0.00,WSDL version 420,2013-05-27 23:02:00,
2013-05-27 19:06:00,75.9,50.4,29.00,North,-999,-999.0,-999.0,40,0.00,,,0.00,WSDL version 420,2013-05-27 23:06:00,
2013-05-27 19:08:00,75.8,50.4,29.00,North,-999,-999.0,-999.0,41,0.00,,,0.00,WSDL version 420,2013-05-27 23:08:00,
2013-05-27 19:12:00,75.7,50.4,29.00,North,-999,-999.0,-999.0,41,0.00,,,0.00,WSDL version 420,2013-05-27 23:12:00,
2013-05-27 19:14:00,75.6,50.3,29.00,SE,135,0.0,0.0,41,0.00,,,0.00,WSDL version 420,2013-05-27 23:14:00,
2013-05-27 19:18:00,75.5,50.7,29.00,North,0,0.0,0.0,42,0.00,,,0.00,WSDL version 420,2013-05-27 23:18:00,
2013-05-27 19:20:00,75.4,50.8,29.00,North,-999,-999.0,-999.0,43,0.00,,,0.00,WSDL version 420,2013-05-27 23:20:00,
2013-05-27 19:22:00,75.2,51.0,29.00,SE,135,0.0,0.0,43,0.00,,,0.00,WSDL version 420,2013-05-27 23:22:00,
2013-05-27 19:26:00,75.1,51.1,29.00,SE,135,0.0,0.0,43,0.00,,,0.00,WSDL version 420,2013-05-27 23:26:00,
2013-05-27 19:28:00,74.9,51.1,29.00,North,-999,-999.0,-999.0,43,0.00,,,0.00,WSDL version 420,2013-05-27 23:28:00,
2013-05-27 19:30:00,74.8,50.9,29.00,SE,135,0.0,0.0,43,0.00,,,0.00,WSDL version 420,2013-05-27 23:30:00,
2013-05-27 19:32:00,74.6,50.7,29.00,North,0,0.0,0.0,43,0.00,,,0.00,WSDL version 420,2013-05-27 23:32:00,
2013-05-27 19:36:00,74.4,50.9,29.00,North,-999,-999.0,-999.0,44,0.00,,,0.00,WSDL version 420,2013-05-27 23:36:00,
2013-05-27 19:38:00,74.2,50.9,29.00,South,180,0.0,0.0,44,0.00,,,0.00,WSDL version 420,2013-05-27 23:38:00,
2013-05-27 19:42:00,74.0,50.7,29.00,SSW,203,0.0,0.0,44,0.00,,,0.00,WSDL version 420,2013-05-27 23:42:00,
2013-05-27 19:44:00,73.8,50.7,29.00,SSW,203,0.0,0.0,45,0.00,,,0.00,WSDL version 420,2013-05-27 23:44:00,
2013-05-27 19:46:00,73.7,50.7,29.00,North,-999,-999.0,-999.0,45,0.00,,,0.00,WSDL version 420,2013-05-27 23:46:00,
2013-05-27 19:48:00,73.6,50.8,29.00,North,-999,-999.0,-999.0,45,0.00,,,0.00,WSDL version 420,2013-05-27 23:48:00,
2013-05-27 19:52:00,73.2,51.0,29.00,NW,315,0.0,0.0,46,0.00,,,0.00,WSDL version 420,2013-05-27 23:52:00,
2013-05-27 19:58:00,72.9,51.2,29.00,South,180,0.0,0.0,46,0.00,,,0.00,WSDL version 420,2013-05-27 23:58:00,
2013-05-27 20:00:00,72.8,51.0,29.00,South,180,0.0,0.0,47,0.00,,,0.00,WSDL version 420,2013-05-28 00:00:00,
2013-05-27 20:02:00,72.6,51.2,29.00,South,180,0.0,0.0,47,0.00,,,0.00,WSDL version 420,2013-05-28 00:02:00,
2013-05-27 20:06:00,72.5,51.1,29.00,South,180,0.0,0.0,47,0.00,,,0.00,WSDL version 420,2013-05-28 00:06:00,
2013-05-27 20:08:00,72.4,51.1,29.00,North,0,0.0,0.0,47,0.00,,,0.00,WSDL version 420,2013-05-28 00:08:00,
2013-05-27 20:10:00,72.3,50.9,29.00,North,-999,-999.0,-999.0,47,0.00,,,0.00,WSDL version 420,2013-05-28 00:10:00,
2013-05-27 20:14:00,72.1,50.8,29.00,South,180,0.0,0.0,47,0.00,,,0.00,WSDL version 420,2013-05-28 00:14:00,
2013-05-27 20:16:00,72.0,50.7,29.00,North,-999,-999.0,-999.0,47,0.00,,,0.00,WSDL version 420,2013-05-28 00:16:00,
2013-05-27 20:18:00,71.8,50.5,29.00,North,-999,-999.0,-999.0,47,0.00,,,0.00,WSDL version 420,2013-05-28 00:18:00,
2013-05-27 20:24:00,71.5,50.5,29.00,North,-999,-999.0,-999.0,47,0.00,,,0.00,WSDL version 420,2013-05-28 00:24:00,
2013-05-27 20:26:00,71.3,50.4,29.00,NW,315,0.0,0.0,48,0.00,,,0.00,WSDL version 420,2013-05-28 00:26:00,
2013-05-27 20:28:00,71.2,50.3,29.00,South,180,0.0,0.0,48,0.00,,,0.00,WSDL version 420,2013-05-28 00:28:00,
2013-05-27 20:30:00,71.0,50.3,29.00,South,180,0.0,0.0,48,0.00,,,0.00,WSDL version 420,2013-05-28 00:30:00,
2013-05-27 20:32:00,70.9,50.3,29.00,North,0,0.0,0.0,48,0.00,,,0.00,WSDL version 420,2013-05-28 00:32:00,
2013-05-27 20:34:00,70.8,50.4,29.00,North,-999,-999.0,-999.0,49,0.00,,,0.00,WSDL version 420,2013-05-28 00:34:00,
2013-05-27 20:36:00,70.8,50.4,29.00,South,180,0.0,0.0,48,0.00,,,0.00,WSDL version 420,2013-05-28 00:36:00,
2013-05-27 20:38:00,70.6,50.5,29.00,South,180,0.0,0.0,49,0.00,,,0.00,WSDL version 420,2013-05-28 00:38:00,
2013-05-27 20:40:00,70.5,50.5,29.00,North,0,0.0,0.0,50,0.00,,,0.00,WSDL version 420,2013-05-28 00:40:00,
2013-05-27 20:44:00,70.3,50.8,29.00,North,-999,-999.0,-999.0,50,0.00,,,0.00,WSDL version 420,2013-05-28 00:44:00,
2013-05-27 20:48:00,70.1,50.6,29.00,South,180,0.0,0.0,50,0.00,,,0.00,WSDL version 420,2013-05-28 00:48:00,
2013-05-27 20:52:00,69.9,50.8,29.00,South,180,0.0,0.0,51,0.00,,,0.00,WSDL version 420,2013-05-28 00:52:00,
2013-05-27 20:54:00,69.9,50.9,29.00,North,-999,-999.0,-999.0,51,0.00,,,0.00,WSDL version 420,2013-05-28 00:54:00,
2013-05-27 20:58:00,69.8,50.9,28.97,North,-999,-999.0,-999.0,52,0.00,,,0.00,WSDL version 420,2013-05-28 00:58:00,
2013-05-27 21:00:00,69.7,51.1,28.97,South,180,0.0,0.0,52,0.00,,,0.00,WSDL version 420,2013-05-28 01:00:00,
2013-05-27 21:02:00,69.5,50.9,28.97,South,180,0.0,0.0,51,0.00,,,0.00,WSDL version 420,2013-05-28 01:02:00,
2013-05-27 21:06:00,69.3,50.7,28.97,North,-999,-999.0,-999.0,52,0.00,,,0.00,WSDL version 420,2013-05-28 01:06:00,
2013-05-27 21:10:00,69.0,50.7,28.97,North,-999,-999.0,-999.0,52,0.00,,,0.00,WSDL version 420,2013-05-28 01:10:00,
2013-05-27 21:12:00,69.0,50.7,29.00,North,-999,-999.0,-999.0,53,0.00,,,0.00,WSDL version 420,2013-05-28 01:12:00,
2013-05-27 21:16:00,68.8,51.0,29.00,North,-999,-999.0,-999.0,53,0.00,,,0.00,WSDL version 420,2013-05-28 01:16:00,
2013-05-27 21:18:00,68.6,50.8,29.00,North,-999,-999.0,-999.0,53,0.00,,,0.00,WSDL version 420,2013-05-28 01:18:00,
2013-05-27 21:20:00,68.6,50.8,29.00,North,-999,-999.0,-999.0,53,0.00,,,0.00,WSDL version 420,2013-05-28 01:20:00,
2013-05-27 21:24:00,68.4,50.6,29.00,North,-999,-999.0,-999.0,53,0.00,,,0.00,WSDL version 420,2013-05-28 01:24:00,
2013-05-27 21:28:00,68.4,50.6,29.00,South,180,0.0,0.0,53,0.00,,,0.00,WSDL version 420,2013-05-28 01:28:00,
2013-05-27 21:30:00,68.3,50.5,29.00,North,-999,-999.0,-999.0,53,0.00,,,0.00,WSDL version 420,2013-05-28 01:30:00,
2013-05-27 21:34:00,68.1,50.3,29.00,South,180,0.0,0.0,53,0.00,,,0.00,WSDL version 420,2013-05-28 01:34:00,
2013-05-27 21:36:00,68.0,50.3,29.00,North,-999,-999.0,-999.0,53,0.00,,,0.00,WSDL version 420,2013-05-28 01:36:00,
2013-05-27 21:38:00,67.9,50.4,29.00,North,-999,-999.0,-999.0,54,0.00,,,0.00,WSDL version 420,2013-05-28 01:38:00,
2013-05-27 21:42:00,67.8,50.4,29.00,North,-999,-999.0,-999.0,53,0.00,,,0.00,WSDL version 420,2013-05-28 01:42:00,
2013-05-27 21:44:00,67.7,50.3,29.00,South,180,0.0,0.0,54,0.00,,,0.00,WSDL version 420,2013-05-28 01:44:00,
2013-05-27 21:46:00,67.6,50.2,29.00,North,0,0.0,0.0,54,0.00,,,0.00,WSDL version 420,2013-05-28 01:46:00,
2013-05-27 21:48:00,67.5,50.4,29.00,South,180,0.0,0.0,55,0.00,,,0.00,WSDL version 420,2013-05-28 01:48:00,
2013-05-27 21:50:00,67.5,50.6,29.00,North,0,0.0,0.0,55,0.00,,,0.00,WSDL version 420,2013-05-28 01:50:00,
2013-05-27 21:54:00,67.4,50.6,29.00,North,-999,-999.0,-999.0,55,0.00,,,0.00,WSDL version 420,2013-05-28 01:54:00,
2013-05-27 21:56:00,67.3,50.6,29.00,South,180,0.0,0.0,55,0.00,,,0.00,WSDL version 420,2013-05-28 01:56:00,
2013-05-27 22:02:00,67.3,51.1,29.00,North,-999,-999.0,-999.0,56,0.00,,,0.00,WSDL version 420,2013-05-28 02:02:00,
2013-05-27 22:04:00,67.3,51.0,29.00,South,180,0.0,0.0,56,0.00,,,0.00,WSDL version 420,2013-05-28 02:04:00,
2013-05-27 22:06:00,67.2,51.0,29.00,North,-999,-999.0,-999.0,56,0.00,,,0.00,WSDL version 420,2013-05-28 02:06:00,
2013-05-27 22:08:00,67.1,50.9,29.00,South,180,0.0,0.0,56,0.00,,,0.00,WSDL version 420,2013-05-28 02:08:00,
2013-05-27 22:12:00,67.1,50.9,29.00,South,180,0.0,0.0,56,0.00,,,0.00,WSDL version 420,2013-05-28 02:12:00,
2013-05-27 22:14:00,67.1,51.1,29.00,South,180,0.0,0.0,57,0.00,,,0.00,WSDL version 420,2013-05-28 02:14:00,
2013-05-27 22:16:00,67.1,51.3,29.00,North,-999,-999.0,-999.0,57,0.00,,,0.00,WSDL version 420,2013-05-28 02:16:00,
2013-05-27 22:22:00,66.9,51.2,29.00,North,-999,-999.0,-999.0,57,0.00,,,0.00,WSDL version 420,2013-05-28 02:22:00,
2013-05-27 22:24:00,66.8,51.0,29.00,South,180,0.0,0.0,56,0.00,,,0.00,WSDL version 420,2013-05-28 02:24:00,
2013-05-27 22:28:00,66.6,50.7,29.00,North,-999,-999.0,-999.0,57,0.00,,,0.00,WSDL version 420,2013-05-28 02:28:00,
2013-05-27 22:30:00,66.4,50.7,29.00,South,180,0.0,0.0,57,0.00,,,0.00,WSDL version 420,2013-05-28 02:30:00,
2013-05-27 22:34:00,66.2,50.8,29.00,South,180,0.0,0.0,57,0.00,,,0.00,WSDL version 420,2013-05-28 02:34:00,
2013-05-27 22:36:00,66.2,50.8,29.00,South,180,0.0,0.0,58,0.00,,,0.00,WSDL version 420,2013-05-28 02:36:00,
2013-05-27 22:40:00,66.2,51.0,29.00,South,180,0.0,0.0,58,0.00,,,0.00,WSDL version 420,2013-05-28 02:40:00,
2013-05-27 22:42:00,66.2,51.1,29.03,North,-999,-999.0,-999.0,58,0.00,,,0.00,WSDL version 420,2013-05-28 02:42:00,
2013-05-27 22:44:00,66.2,51.1,29.03,South,180,0.0,0.0,58,0.00,,,0.00,WSDL version 420,2013-05-28 02:44:00,
2013-05-27 22:46:00,66.2,51.2,29.03,South,180,0.0,0.0,59,0.00,,,0.00,WSDL version 420,2013-05-28 02:46:00,
2013-05-27 22:48:00,66.2,51.4,29.03,South,180,0.0,0.0,59,0.00,,,0.00,WSDL version 420,2013-05-28 02:48:00,
2013-05-27 22:50:00,66.2,51.3,29.03,North,-999,-999.0,-999.0,59,0.00,,,0.00,WSDL version 420,2013-05-28 02:50:00,
2013-05-27 22:56:00,66.0,51.3,29.03,North,0,0.0,0.0,59,0.00,,,0.00,WSDL version 420,2013-05-28 02:56:00,
2013-05-27 23:02:00,65.8,51.5,29.00,North,-999,-999.0,-999.0,60,0.00,,,0.00,WSDL version 420,2013-05-28 03:02:00,
2013-05-27 23:04:00,65.7,51.5,29.00,SSE,158,0.0,0.0,60,0.00,,,0.00,WSDL version 420,2013-05-28 03:04:00,
2013-05-27 23:06:00,65.7,51.4,29.00,South,180,0.0,0.0,60,0.00,,,0.00,WSDL version 420,2013-05-28 03:06:00,
2013-05-27 23:10:00,65.7,51.7,29.00,South,180,0.0,0.0,61,0.00,,,0.00,WSDL version 420,2013-05-28 03:10:00,
2013-05-27 23:12:00,65.7,51.8,29.03,North,-999,-999.0,-999.0,60,0.00,,,0.00,WSDL version 420,2013-05-28 03:12:00,
2013-05-27 23:14:00,65.6,51.6,29.03,North,-999,-999.0,-999.0,60,0.00,,,0.00,WSDL version 420,2013-05-28 03:14:00,
2013-05-27 23:16:00,65.6,51.5,29.03,North,-999,-999.0,-999.0,61,0.00,,,0.00,WSDL version 420,2013-05-28 03:16:00,
2013-05-27 23:18:00,65.5,51.6,29.03,North,-999,-999.0,-999.0,61,0.00,,,0.00,WSDL version 420,2013-05-28 03:18:00,
2013-05-27 23:20:00,65.4,51.7,29.03,North,-999,-999.0,-999.0,62,0.00,,,0.00,WSDL version 420,2013-05-28 03:20:00,
2013-05-27 23:24:00,65.3,51.8,29.03,South,180,0.0,0.0,62,0.00,,,0.00,WSDL version 420,2013-05-28 03:24:00,
2013-05-27 23:28:00,65.3,52.0,29.03,South,180,0.0,0.0,62,0.00,,,0.00,WSDL version 420,2013-05-28 03:28:00,
2013-05-27 23:30:00,65.3,52.0,29.03,North,-999,-999.0,-999.0,62,0.00,,,0.00,WSDL version 420,2013-05-28 03:30:00,
2013-05-27 23:32:00,65.3,52.0,29.03,South,180,0.0,0.0,62,0.00,,,0.00,WSDL version 420,2013-05-28 03:32:00,
2013-05-27 23:34:00,65.3,52.0,29.03,South,180,0.0,0.0,62,0.00,,,0.00,WSDL version 420,2013-05-28 03:34:00,
2013-05-27 23:36:00,65.3,52.1,29.03,North,-999,-999.0,-999.0,63,0.00,,,0.00,WSDL version 420,2013-05-28 03:36:00,
2013-05-27 23:38:00,65.3,52.0,29.03,North,-999,-999.0,-999.0,62,0.00,,,0.00,WSDL version 420,2013-05-28 03:38:00,
2013-05-27 23:40:00,65.3,52.1,29.03,South,180,0.0,0.0,62,0.00,,,0.00,WSDL version 420,2013-05-28 03:40:00,
2013-05-27 23:42:00,65.2,52.1,29.03,North,-999,-999.0,-999.0,63,0.00,,,0.00,WSDL version 420,2013-05-28 03:42:00,
2013-05-27 23:46:00,65.0,52.1,29.03,North,-999,-999.0,-999.0,63,0.00,,,0.00,WSDL version 420,2013-05-28 03:46:00,
2013-05-27 23:48:00,64.9,52.1,29.03,North,-999,-999.0,-999.0,63,0.00,,,0.00,WSDL version 420,2013-05-28 03:48:00,
2013-05-27 23:50:00,64.9,52.0,29.03,North,-999,-999.0,-999.0,63,0.00,,,0.00,WSDL version 420,2013-05-28 03:50:00,
2013-05-27 23:54:00,64.8,51.9,29.03,South,180,0.0,0.0,63,0.00,,,0.00,WSDL version 420,2013-05-28 03:54:00,
2013-05-27 23:56:00,64.8,52.0,29.03,North,-999,-999.0,-999.0,63,0.00,,,0.00,WSDL version 420,2013-05-28 03:56:00,
2013-05-27 23:58:00,64.8,52.0,29.03,North,-999,-999.0,-999.0,63,0.00,,,0.00,WSDL version 420,2013-05-28 03:58:00,